Dewpoint
59 59 60 59 59 60 60 60 61 61 61 61 61 61 60 60 59 60 60 61 60 61 62 62 60 59 59 59 60 59 56 28 25 22 21 21 37 53 53 54 60 59 58 40 18 18 19 20 19 19 14 20 26 27 29 28 35 34 27 26 23 27 19 20 10 14 19 22 24 24 24 26 24 26 29 28 26 31 31 34 35 25 24 29 31 32 33 35
59 59 59 59 59 59 60 60 61 61 60 61 61 61 60 59 60 60 59 59 60 60 61 61 61 59 60 59 59 59 46 25 21 23 19 36 55 54 56 57 59 58 50 20 17 23 19 17 21 19 12 16 23 26 24 25 27 29 27 24 23 24 20 19 10 10 18 17 23 24 23 23 21 26 27 25 24 27 27 29 32 29 25 32 33 33 34 35
59 59 59 58 58 59 59 60 60 60 61 60 60 61 61 61 60 60 59 59 60 60 60 59 59 59 58 59 60 59 39 33 26 20 25 52 52 56 57 59 58 58 33 23 24 23 22 22 25 17 13 12 15 22 24 23 23 28 25 22 24 28 18 13 11 11 14 18 22 22 22 22 21 25 22 23 22 27 26 27 25 29 27 29 33 34 34 34
59 59 58 58 59 59 58 59 60 60 60 60 60 61 60 60 60 60 61 60 59 60 59 59 59 59 59 59 59 54 35 28 27 23 24 54 56 56 59 59 59 57 49 40 32 35 31 27 19 15 18 17 21 22 21 22 20 24 24 22 24 27 10 10 12 12 12 19 18 20 22 20 20 23 22 23 20 21 23 26 25 27 28 27 33 34 34 34
58 59 59 58 58 59 59 59 60 60 60 60 60 60 60 60 61 61 60 59 60 61 59 59 60 60 58 59 58 44 30 21 24 21 24 50 56 58 59 60 58 47 42 41 38 36 30 23 18 20 19 15 24 18 17 17 18 24 20 24 24 14 9 11 12 14 12 13 12 18 17 17 22 22 23 20 17 14 19 22 27 25 27 28 32 34 34 33
58 58 59 58 58 58 59 59 58 59 60 60 60 60 60 61 61 61 60 59 60 60 59 60 60 60 58 58 44 38 19 7 26 17 41 51 54 55 56 58 59 46 44 27 29 25 16 14 13 18 19 14 13 15 17 15 17 14 18 20 21 9 10 12 13 14 13 9 10 17 18 19 19 21 23 21 18 16 27 29 28 26 27 27 32 33 33 33
58 57 58 58 58 58 58 58 59 59 59 60 60 60 59 60 60 61 61 60 58 60 58 59 60 59 57 53 46 32 23 25 18 21 45 50 52 50 52 54 52 33 24 21 20 17 15 13 12 19 18 20 20 18 20 15 18 18 16 17 14 12 8 11 12 13 12 9 7 13 18 16 21 17 23 22 21 22 29 37 35 31 32 30 31 32 33 33
58 57 58 58 58 58 58 58 58 59 59 59 59 60 60 60 61 60 61 61 60 59 60 59 59 58 52 40 30 30 29 30 24 25 43 50 30 29 41 28 28 28 22 21 21 19 14 13 11 20 16 15 20 20 27 20 25 19 17 25 17 10 10 12 11 11 11 11 11 13 11 12 19 16 16 12 15 17 20 29 38 32 28 29 29 31 32 32
58 58 58 57 58 58 58 58 59 59 59 59 59 59 60 60 60 60 61 61 61 58 61 60 60 58 54 33 26 20 20 26 20 21 26 22 20 22 24 21 23 23 24 23 23 19 14 17 18 13 17 18 24 26 27 21 20 24 17 24 20 12 12 11 10 11 10 12 12 9 9 11 12 15 10 8 8 8 12 18 31 26 24 25 27 28 29 30
58 58 57 57 57 58 58 58 58 59 59 59 59 59 59 59 59 59 59 59 61 58 60 60 59 58 39 33 29 12 22 20 16 21 21 22 21 19 19 21 23 24 23 22 21 14 12 11 17 19 19 18 24 22 26 23 22 26 26 27 20 17 12 12 9 10 11 11 12 7 9 10 11 10 5 13 10 16 16 13 26 27 23 23 24 27 28 28
57 57 57 57 57 58 58 58 58 58 56 56 59 59 59 59 59 59 60 60 60 59 60 59 56 41 27 26 19 12 21 20 21 20 21 24 22 20 19 19 22 23 23 22 22 22 19 15 19 24 26 18 21 24 25 25 27 26 24 23 21 23 23 11 11 10 10 9 12 9 10 13 12 16 9 6 14 16 14 14 25 28 25 23 23 23 25 25
57 56 57 57 57 58 58 58 58 58 59 59 59 60 60 58 58 58 59 60 60 59 59 58 53 37 31 26 21 17 18 20 24 20 24 24 23 22 21 20 21 22 22 21 22 23 26 26 27 25 18 30 20 26 24 30 27 25 22 17 23 24 14 16 11 9 9 8 12 11 12 14 17 13 12 11 15 15 14 13 15 26 28 26 25 25 24 24
56 56 56 56 57 58 58 58 58 58 59 59 59 60 58 57 58 58 58 59 58 57 59 57 54 40 32 24 28 28 19 19 23 23 23 25 23 23 22 20 20 23 21 21 22 25 32 30 21 22 29 28 28 21 26 28 27 24 22 16 14 24 18 20 13 12 9 9 14 16 8 14 12 11 11 14 14 15 14 14 13 16 22 25 25 25 25 26
56 56 56 57 58 58 58 58 58 59 59 59 59 57 56 57 58 57 58 58 58 58 58 57 44 37 28 24 31 20 27 26 22 21 22 26 21 19 23 24 24 21 23 21 22 28 30 29 26 30 36 26 24 32 27 29 28 16 24 19 16 14 19 21 13 11 11 15 17 22 9 10 9 9 10 11 13 13 13 13 14 14 15 19 25 24 25 26
56 56 56 56 56 57 57 57 57 57 57 58 59 58 57 56 57 57 58 58 57 57 56 55 45 36 29 32 27 18 51 22 18 19 23 23 21 18 19 23 22 22 20 20 20 24 26 35 31 28 23 32 31 21 22 26 28 22 14 16 22 14 20 23 21 10 9 12 21 18 11 10 9 10 13 16 16 15 14 14 14 14 14 15 18 21 20 22
56 56 56 57 56 55 56 56 56 56 57 58 58 58 57 57 57 58 59 58 57 57 51 46 46 32 23 23 13 35 19 17 17 19 21 24 24 21 23 23 22 20 19 18 22 21 28 32 28 30 27 22 26 19 20 15 19 25 12 15 15 18 20 19 16 18 16 18 17 18 14 13 9 11 12 15 15 15 14 14 14 14 15 16 16 21 22 23
56 56 56 56 56 54 56 56 56 56 56 56 57 57 56 56 57 57 58 57 53 51 37 33 38 33 19 24 18 16 16 18 20 20 19 23 24 23 23 21 19 21 21 20 19 20 20 18 28 20 30 21 28 23 13 17 17 18 20 14 20 13 16 15 22 23 21 19 13 15 14 12 12 12 13 15 16 16 15 14 13 15 16 18 19 20 21 22
56 56 57 56 56 56 55 55 56 55 56 56 56 55 54 56 56 46 48 48 45 48 47 44 33 19 19 18 13 13 18 19 20 19 20 20 25 24 23 21 21 20 24 23 18 15 18 18 25 16 24 24 21 19 11 13 15 17 17 15 19 20 17 17 16 20 18 21 16 16 14 13 12 13 14 18 14 14 15 13 15 16 17 19 20 21 21 22
56 56 56 56 56 56 54 55 55 55 56 56 55 55 55 54 48 40 44 43 34 29 27 29 28 18 15 24 21 17 19 20 21 21 21 24 25 24 23 23 22 18 22 19 22 15 23 26 27 20 16 19 17 21 19 19 23 19 21 19 20 16 17 15 19 24 21 16 17 16 14 14 15 15 18 16 14 14 15 17 18 18 19 20 20 21 21 22
56 54 55 55 55 54 53 54 55 56 56 51 48 45 38 32 35 35 40 35 28 31 30 33 33 32 22 16 16 17 21 19 16 20 23 25 25 22 19 22 30 26 22 18 26 23 26 15 15 15 19 21 23 23 21 19 25 23 22 20 18 17 17 19 22 25 25 20 19 18 18 19 18 18 16 15 16 18 18 17 18 19 19 20 21 21 22 22
56 55 55 56 56 54 53 54 55 55 55 48 44 32 17 22 16 15 28 29 28 35 33 35 28 22 16 16 19 20 16 15 17 18 23 26 27 21 21 22 27 21 21 28 23 31 27 20 22 22 21 21 24 25 26 22 24 19 16 15 15 19 13 17 23 27 28 19 19 19 17 18 16 16 18 19 19 18 17 17 17 18 19 20 21 21 21 21
56 54 54 55 55 54 54 54 55 55 54 46 43 33 37 38 29 27 20 14 25 34 35 34 32 24 22 19 19 22 17 16 21 18 21 25 24 14 23 21 24 18 27 27 24 26 20 20 23 24 24 24 24 25 24 19 18 19 13 15 13 15 20 21 23 26 27 21 18 18 14 16 15 17 19 19 19 19 18 18 17 17 18 18 19 19 20 19
55 54 54 55 55 54 54 55 55 54 46 44 41 40 40 42 46 46 33 20 29 35 34 32 25 27 21 21 23 23 16 22 22 21 20 23 28 23 24 22 20 23 26 28 19 22 20 25 25 26 25 22 22 24 22 22 22 16 15 13 12 20 14 14 21 24 24 17 18 18 16 19 17 17 17 18 18 18 20 20 21 21 19 19 19 20 20 20
55 54 54 55 54 55 54 55 54 44 44 43 43 42 44 46 47 45 36 21 20 28 36 34 26 27 25 19 22 23 20 24 20 19 23 24 23 29 22 22 22 22 22 27 24 22 20 25 22 25 26 22 19 22 21 19 16 23 20 18 16 18 17 17 17 21 22 20 22 18 15 15 16 15 15 17 19 18 19 18 19 20 22 22 22 22 22 20
54 53 54 55 55 54 54 53 43 39 45 45 44 45 44 46 46 44 24 21 23 29 36 36 31 28 20 22 26 21 28 26 27 25 24 19 22 25 22 30 22 21 24 28 28 25 24 25 26 25 21 23 19 19 21 21 16 19 21 19 18 19 17 17 19 14 12 9 19 15 8 10 14 16 16 17 17 17 18 18 18 18 19 20 19 20 21 23
53 54 54 55 54 54 53 43 39 44 42 39 45 46 44 44 46 44 27 20 11 26 29 31 23 24 21 26 21 27 28 26 25 20 30 22 29 26 26 19 21 17 25 25 22 22 21 25 27 26 24 23 23 19 20 21 17 12 17 22 20 18 16 17 16 13 7 3 14 19 3 2 14 14 16 16 16 16 17 17 17 17 18 19 19 20 20 20
54 53 54 55 53 53 24 23 41 46 37 44 46 45 44 45 46 44 28 14 11 21 23 32 27 28 23 25 23 26 10 17 23 26 23 28 30 37 17 20 27 29 29 26 20 12 23 23 21 22 21 22 19 16 19 20 15 15 19 22 18 18 15 16 14 11 14 20 20 19 10 3 5 14 16 17 16 16 16 17 17 17 17 18 19 21 21 22
54 54 54 54 54 51 28 35 46 43 34 44 46 45 45 45 45 37 16 -8 -9 25 19 22 30 32 23 28 24 20 20 25 16 25 23 27 32 32 20 17 22 24 26 19 8 21 26 20 22 21 21 19 15 18 18 20 13 17 20 21 19 19 18 19 15 15 16 12 12 13 16 8 8 14 15 17 13 15 16 17 18 18 18 18 19 20 20 21
54 54 54 54 54 52 46 44 42 34 43 45 45 45 47 44 37 24 10 -9 7 25 29 31 35 29 31 29 28 28 23 29 18 22 31 30 29 31 18 26 26 26 28 21 16 19 26 20 22 22 18 16 21 20 18 18 14 19 23 23 22 21 20 18 14 13 11 8 5 11 17 4 8 14 14 16 14 13 15 17 17 18 18 18 18 18 18 18
54 52 53 54 46 40 40 44 39 40 45 45 45 46 45 40 27 18 -6 -15 25 6 28 25 26 22 28 23 24 26 23 26 26 28 30 27 27 30 28 33 27 25 21 26 23 22 24 31 30 23 19 19 19 18 21 21 19 23 21 17 20 19 19 17 16 12 9 2 10 14 16 9 4 13 14 14 12 14 15 15 16 17 18 18 18 17 19 19
53 54 51 52 41 40 40 35 40 44 44 44 45 44 39 27 17 8 -10 2 28 22 25 22 20 29 24 22 21 25 25 26 27 25 19 27 23 27 26 25 24 21 20 20 20 24 26 25 21 23 28 26 20 20 24 24 22 19 17 15 10 12 13 13 11 10 1 -1 5 10 14 10 4 8 14 16 16 15 15 13 15 16 17 17 16 16 17 17
53 53 52 49 42 44 23 25 30 45 44 44 44 36 28 11 18 -1 -5 23 8 17 16 16 21 24 23 25 19 21 18 22 27 22 21 20 20 20 20 13 18 9 12 12 9 20 22 23 25 26 29 20 22 14 17 22 20 19 15 12 2 1 -1 -8 2 -3 0 1 6 8 11 5 12 13 16 15 16 16 17 18 16 16 17 18 16 16 17 18
53 52 52 49 46 37 41 36 45 45 44 44 39 30 18 12 -14 4 3 13 2 17 15 20 20 24 24 19 17 20 22 14 20 25 23 25 21 18 22 20 21 10 4 16 12 12 11 21 23 24 23 26 17 10 8 8 12 12 11 8 -0 -5 -8 -8 -4 -2 -1 6 11 8 8 8 13 14 16 14 17 19 18 19 19 17 17 16 16 16 16 17
52 52 42 44 44 39 41 44 43 44 46 41 35 26 16 3 -5 22 3 14 17 24 24 25 22 23 21 13 18 20 9 13 20 16 23 20 21 17 19 20 21 18 17 16 8 8 0 8 16 20 16 21 20 11 11 11 12 13 15 10 3 1 -4 -5 -5 -6 -5 4 7 11 2 4 9 11 16 17 18 16 15 16 18 19 18 16 16 16 17 17
52 49 45 44 43 44 43 43 43 44 42 36 25 19 3 -0 4 5 6 18 20 22 19 22 21 18 18 19 19 20 8 7 17 15 16 17 14 16 16 15 20 20 19 7 10 7 9 9 13 22 19 19 21 23 20 17 11 15 16 18 9 2 12 -0 -2 -2 -2 1 3 4 4 11 13 18 19 17 14 13 14 14 15 16 16 15 15 17 18 17
49 47 46 42 42 43 43 44 42 43 40 29 23 16 9 8 -2 14 15 24 22 18 19 20 17 13 12 16 19 12 17 6 16 11 10 18 18 16 19 19 18 21 10 4 6 4 11 2 16 21 21 15 16 19 20 18 1 7 9 4 8 16 9 2 9 11 7 1 -1 3 12 14 15 15 15 14 13 13 14 14 15 15 15 14 14 16 15 15
41 43 38 39 41 44 43 42 44 41 32 27 21 10 14 17 13 21 32 18 19 20 19 6 10 4 7 4 11 12 10 15 14 7 3 16 12 19 20 23 22 20 15 11 10 9 2 3 16 17 15 20 19 22 21 20 16 10 5 12 18 18 16 9 -1 -2 -5 -1 2 8 8 9 8 7 13 12 11 12 12 14 15 13 14 13 13 13 12 14
43 39 38 39 39 42 43 42 42 38 32 27 16 26 25 21 27 27 28 23 21 21 15 12 10 11 5 8 11 8 14 1 10 11 9 15 9 20 21 20 22 17 22 22 6 11 10 4 9 14 15 18 21 19 16 20 21 12 10 17 8 0 4 8 2 -3 -0 -3 -1 5 6 8 7 10 12 10 11 11 11 12 13 12 11 12 12 11 10 13
39 38 34 35 41 42 43 42 40 34 27 20 16 20 25 26 27 23 25 26 22 22 13 14 6 11 11 10 10 12 10 7 9 9 3 10 8 18 19 22 22 24 25 21 16 18 14 1 8 14 15 16 13 16 7 13 18 20 19 13 17 12 1 1 2 2 5 -4 -2 2 1 4 9 10 11 10 11 11 10 10 10 10 11 11 12 11 9 13
30 26 30 37 42 42 42 39 27 22 18 11 9 18 24 27 28 28 29 28 22 15 14 13 18 10 16 13 10 10 13 9 10 10 12 13 11 22 18 23 19 23 24 23 18 21 12 8 -1 7 15 13 5 12 10 13 6 11 12 9 10 5 14 12 5 4 5 -5 -6 -4 1 4 11 11 11 11 11 11 11 10 9 10 10 12 12 10 10 14
33 28 30 38 44 42 39 27 20 17 16 15 22 22 28 24 30 29 29 30 28 25 16 17 17 10 15 14 11 18 13 15 14 10 13 14 14 7 23 23 25 23 23 19 19 17 8 10 5 10 6 6 8 12 12 14 12 10 13 8 9 5 4 1 6 3 4 4 4 2 6 7 11 12 12 11 10 10 10 9 9 10 11 12 10 9 10 16
24 14 22 33 44 39 32 22 16 20 19 10 10 24 28 37 26 24 26 26 23 22 24 21 21 17 20 19 16 16 16 12 16 12 15 9 17 15 20 23 26 26 19 14 15 20 13 13 8 6 7 8 9 12 16 16 16 15 13 12 14 8 4 -0 1 6 4 5 8 10 7 8 12 11 11 11 10 9 9 10 10 11 12 11 9 10 12 15
22 14 29 37 41 33 24 13 23 22 14 16 26 29 28 27 23 23 24 25 23 24 22 23 23 18 17 16 18 15 18 9 15 10 16 18 18 18 23 24 25 24 20 17 19 20 24 4 2 8 10 11 11 13 14 16 18 13 13 16 14 8 8 6 6 5 7 6 7 7 6 8 12 11 9 10 10 10 9 10 11 12 12 10 8 11 14 12
25 27 26 34 37 31 17 -1 7 13 18 25 27 27 29 29 27 25 24 25 22 18 19 20 23 18 15 21 19 15 17 2 12 11 9 15 17 26 22 24 25 25 19 19 10 19 3 6 6 0 -3 8 6 10 12 14 14 12 11 14 15 11 8 7 6 5 6 3 8 3 0 3 13 12 9 9 7 7 7 9 12 12 10 7 9 13 12 11
26 29 28 30 30 26 17 20 21 14 16 21 18 15 17 24 28 27 25 25 24 20 17 19 22 21 18 21 20 21 22 12 9 12 10 12 15 25 23 24 23 23 27 27 31 27 6 8 4 -1 -3 -4 -4 -4 2 7 10 12 17 14 13 10 9 10 4 4 3 4 9 2 0 11 12 11 8 8 7 7 7 9 11 11 9 6 10 11 10 9
20 1 17 24 24 25 25 25 24 20 14 12 8 15 18 18 24 27 27 26 24 24 18 21 22 18 20 21 20 20 20 20 12 10 10 12 12 21 23 21 24 25 29 32 29 19 9 13 10 7 4 5 9 10 11 18 12 9 9 10 10 8 6 4 2 0 3 2 4 6 8 7 6 7 7 7 7 6 7 8 10 10 8 6 12 10 9 6
22 14 13 14 22 22 20 24 25 18 8 20 7 13 12 19 20 23 27 21 25 22 24 22 22 17 16 19 18 18 20 19 20 13 11 9 10 15 21 23 23 27 31 28 27 13 7 7 12 15 10 12 12 14 14 17 10 7 5 6 7 6 4 6 3 1 6 -3 -2 5 7 6 7 7 7 8 7 7 7 8 10 9 6 7 10 8 10 4
10 14 18 11 15 7 17 15 26 25 25 17 11 21 18 18 19 12 19 24 25 23 20 21 22 22 18 19 18 8 16 18 16 11 9 8 13 16 16 22 21 26 23 17 16 12 7 6 8 10 8 11 13 14 8 6 6 6 7 7 6 6 6 1 2 5 4 -2 2 5 8 8 7 7 8 8 8 7 7 8 9 8 5 8 7 5 4 4
21 23 17 25 16 20 12 13 27 25 22 20 22 18 14 20 17 19 16 18 22 22 18 9 17 22 23 23 18 12 18 6 8 12 8 9 12 12 10 11 22 22 19 16 16 10 10 6 8 10 11 13 12 11 6 6 6 7 7 8 8 8 6 4 5 6 7 5 8 9 9 9 7 8 8 9 8 7 6 8 7 4 5 6 5 4 1 -0
16 25 15 25 22 19 20 20 23 21 16 22 8 16 18 21 19 21 22 18 10 16 23 20 21 23 23 23 20 13 15 14 10 11 12 16 14 11 11 10 14 18 18 14 14 14 9 7 16 9 6 8 9 7 7 6 7 7 7 8 9 9 8 7 5 8 8 5 9 7 6 6 10 9 9 9 7 6 6 5 4 3 6 4 2 -0 -3 -3
29 29 26 21 18 20 20 20 18 20 15 15 15 15 22 21 20 22 20 24 16 17 23 16 18 23 23 23 23 21 24 23 19 18 19 18 14 18 12 12 19 15 15 14 14 13 12 11 6 4 6 7 11 7 7 7 7 7 8 8 9 8 6 8 2 9 6 4 5 3 2 5 9 9 8 6 5 5 4 4 2 4 3 1 -1 -3 -4 -4
31 33 32 27 20 23 11 18 21 16 9 15 19 19 17 18 22 23 18 24 27 27 25 22 22 24 22 22 23 26 25 25 25 24 23 23 22 23 21 21 20 16 13 14 15 10 10 9 8 7 4 1 12 8 7 8 7 1 3 9 8 9 8 8 9 9 8 8 2 1 5 9 8 8 5 5 5 5 4 2 1 3 0 -1 -2 -3 -5 -4